Tracy, MN

2:57 PM CDT on June 23, 2017 (GMT -0500)
Tracy

Weather History for KTKC - January, 2013

Change the Weather History Date:

Tuesday, January 22, 2013

  Actual Average (KMML) Record (KMML)
Temperature  
Mean Temperature 2 °F -  
Max Temperature 13 °F 28 °F 51 °F (1981)
Min Temperature -7 °F 7 °F -26 °F (1949)
Degree Days  
Heating Degree Days 62    
Moisture  
Dew Point -5 °F    
Average Humidity 69    
Maximum Humidity 80    
Minimum Humidity 52    
Precipitation  
Precipitation 0.00 in - - ()
Sea Level Pressure  
Sea Level Pressure 30.26 in    
Wind  
Wind Speed 2 mph (West)    
Max Wind Speed 10 mph    
Max Gust Speed -    
Visibility 10 miles    
Events Snow    
Averages and records for this station are not official NWS values.
T = Trace of Precipitation, MM = Missing Value Source: NWS Daily Summary

Daily Weather History Graph

Daily Weather History Graph

Search for Another Location

Airport or City:

Trip Planner

Search our weather history database for the weather conditions in past years. The results will help you decide how hot, cold, wet, or windy it might be!

Date:

Astronomy

Jan. 22, 2013 Rise Set
Actual Time 7:49 AM CST 5:18 PM CST
Civil Twilight 7:18 AM CST 5:50 PM CST
Nautical Twilight 6:42 AM CST 6:25 PM CST
Astronomical Twilight 6:08 AM CST 7:00 PM CST
Moon 1:40 PM CST (1/22) 4:13 AM CST (1/22)
Length of Visible Light 10h 32m
Length of Day
9h 29m
Waxing Gibbous, 83% of the Moon is Illuminated
Jan 22
Waxing Gibbous
Jan 26
Full
Feb 3
Last Quarter
Feb 10
New
Feb 17
First Quarter

Hourly Weather History & Observations

Time (CST) Temp. Windchill Dew Point Humidity Pressure Visibility Wind Dir Wind Speed Gust Speed Precip Events Conditions
12:18 AM -2.2 °F -16.8 °F -9.6 °F 71% 30.28 in 10.0 mi NW 8.1 mph - N/A   Clear
12:38 AM -2.6 °F -18.4 °F -9.6 °F 72% 30.28 in 10.0 mi NW 9.2 mph - N/A   Clear
12:57 AM -2.4 °F -17.1 °F -9.6 °F 71% 30.28 in 10.0 mi NW 8.1 mph - N/A   Clear
1:18 AM -2.7 °F - -9.8 °F 72% 30.30 in 10.0 mi Calm Calm - N/A   Clear
1:38 AM -2.4 °F - -9.9 °F 70% 30.30 in 10.0 mi Calm Calm - N/A   Clear
1:58 AM -2.4 °F - -9.9 °F 70% 30.30 in 10.0 mi Calm Calm - N/A   Clear
2:17 AM -2.9 °F - -10.3 °F 71% 30.30 in 10.0 mi Calm Calm - N/A   Clear
2:38 AM -2.7 °F - -9.9 °F 71% 30.30 in 10.0 mi Calm Calm - N/A   Clear
2:57 AM -3.1 °F - -10.3 °F 71% 30.30 in 10.0 mi Calm Calm - N/A   Clear
3:18 AM -4.2 °F - -10.7 °F 74% 30.30 in 10.0 mi Calm Calm - N/A   Clear
3:38 AM -3.8 °F - -10.5 °F 73% 30.30 in 10.0 mi Calm Calm - N/A   Clear
3:57 AM -4.0 °F - -10.7 °F 73% 30.30 in 10.0 mi Calm Calm - N/A   Clear
4:18 AM -4.9 °F - -11.2 °F 74% 30.30 in 10.0 mi Calm Calm - N/A   Clear
4:38 AM -5.3 °F - -11.2 °F 76% 30.30 in 10.0 mi Calm Calm - N/A   Clear
4:57 AM -6.2 °F - -11.7 °F 77% 30.30 in 10.0 mi Calm Calm - N/A   Clear
5:18 AM -6.9 °F - -12.5 °F 77% 30.30 in 10.0 mi Calm Calm - N/A   Clear
5:38 AM -7.2 °F - -12.8 °F 77% 30.30 in 10.0 mi Calm Calm - N/A   Clear
5:57 AM -6.2 °F - -11.7 °F 77% 30.30 in 10.0 mi Calm Calm - N/A   Clear
6:17 AM -5.8 °F - -11.6 °F 76% 30.31 in 10.0 mi Calm Calm - N/A   Clear
6:58 AM -4.4 °F - -10.8 °F 74% 30.31 in 10.0 mi Calm Calm - N/A   Clear
7:17 AM -4.2 °F - -10.3 °F 75% 30.31 in 10.0 mi Calm Calm - N/A   Clear
7:37 AM -3.3 °F - -9.6 °F 74% 30.31 in 10.0 mi Calm Calm - N/A   Clear
7:58 AM -3.6 °F - -10.3 °F 73% 30.30 in 10.0 mi Calm Calm - N/A   Clear
8:18 AM -3.8 °F - -10.1 °F 74% 30.30 in 10.0 mi Calm Calm - N/A   Clear
8:37 AM -3.8 °F - -10.3 °F 74% 30.31 in 10.0 mi Calm Calm - N/A   Clear
8:57 AM -2.7 °F - -9.9 °F 71% 30.31 in 10.0 mi Calm Calm - N/A   Clear
9:17 AM -1.1 °F - -8.5 °F 71% 30.32 in 10.0 mi Calm Calm - N/A   Clear
9:38 AM -0.6 °F - -8.5 °F 69% 30.32 in 10.0 mi Calm Calm - N/A   Clear
9:57 AM 0.1 °F - -8.5 °F 67% 30.32 in 10.0 mi Calm Calm - N/A   Clear
10:17 AM 0.9 °F - -8.5 °F 65% 30.33 in 10.0 mi Calm Calm - N/A   Clear
10:38 AM 1.9 °F - -9.0 °F 60% 30.33 in 10.0 mi Calm Calm - N/A   Clear
10:57 AM 2.7 °F - -8.0 °F 61% 30.33 in 10.0 mi Calm Calm - N/A   Clear
11:17 AM 3.2 °F - -8.1 °F 59% 30.33 in 10.0 mi Calm Calm - N/A   Clear
11:38 AM 4.1 °F - -8.0 °F 57% 30.33 in 10.0 mi Calm Calm - N/A   Scattered Clouds
11:58 AM 4.8 °F - -7.1 °F 58% 30.32 in 10.0 mi Calm Calm - N/A   Mostly Cloudy
12:17 PM 5.5 °F -1.5 °F -6.0 °F 59% 30.31 in 10.0 mi West 3.5 mph - N/A   Overcast
12:38 PM 6.1 °F - -6.2 °F 57% 30.30 in 10.0 mi Calm Calm - N/A   Overcast
12:58 PM 6.8 °F - -5.1 °F 58% 30.28 in 10.0 mi Calm Calm - N/A   Overcast
1:18 PM 7.0 °F - -5.1 °F 58% 30.27 in 10.0 mi Calm Calm - N/A   Overcast
1:38 PM 7.9 °F - -4.5 °F 57% 30.27 in 10.0 mi Calm Calm - N/A   Overcast
1:57 PM 8.6 °F - -4.4 °F 56% 30.26 in 10.0 mi Calm Calm - N/A   Overcast
2:18 PM 9.3 °F - -3.5 °F 56% 30.25 in 10.0 mi Calm Calm - N/A   Overcast
2:38 PM 9.5 °F - -3.6 °F 55% 30.25 in 10.0 mi Calm Calm - N/A   Overcast
2:58 PM 10.6 °F - -3.1 °F 54% 30.25 in 10.0 mi Calm Calm - N/A   Overcast
3:18 PM 11.3 °F - -3.5 °F 52% 30.25 in 10.0 mi Calm Calm - N/A   Mostly Cloudy
3:38 PM 11.8 °F - -2.6 °F 53% 30.25 in 10.0 mi Calm Calm - N/A   Scattered Clouds
3:57 PM 11.5 °F - -2.2 °F 54% 30.24 in 10.0 mi Calm Calm - N/A   Scattered Clouds
4:18 PM 11.5 °F - -1.8 °F 55% 30.23 in 10.0 mi Calm Calm - N/A   Overcast
4:38 PM 11.7 °F - -1.7 °F 55% 30.23 in 10.0 mi Calm Calm - N/A   Mostly Cloudy
4:58 PM 9.5 °F - -0.6 °F 64% 30.23 in 10.0 mi Calm Calm - N/A   Scattered Clouds
5:17 PM 8.6 °F - -0.4 °F 67% 30.23 in 10.0 mi Calm Calm - N/A   Clear
5:38 PM 7.3 °F - -1.1 °F 68% 30.23 in 10.0 mi Calm Calm - N/A   Clear
5:58 PM 6.8 °F - -0.6 °F 72% 30.22 in 10.0 mi Calm Calm - N/A   Clear
6:17 PM 7.2 °F - -0.4 °F 71% 30.21 in 10.0 mi Calm Calm - N/A   Mostly Cloudy
6:38 PM 7.5 °F - 0.1 °F 72% 30.22 in 10.0 mi Calm Calm - N/A   Overcast
6:58 PM 8.2 °F - 1.0 °F 72% 30.22 in 10.0 mi Calm Calm - N/A   Overcast
7:18 PM 8.6 °F - 2.1 °F 75% 30.22 in 10.0 mi Calm Calm - N/A Snow Light Snow
7:37 PM 9.7 °F - 2.8 °F 74% 30.22 in 10.0 mi Calm Calm - N/A   Overcast
7:58 PM 11.1 °F - 2.8 °F 69% 30.20 in 10.0 mi Calm Calm - N/A   Overcast
8:18 PM 11.5 °F - 3.2 °F 69% 30.19 in 10.0 mi Calm Calm - N/A Snow Light Snow
8:38 PM 11.7 °F - 4.1 °F 72% 30.19 in 10.0 mi Calm Calm - N/A Snow Light Snow
8:58 PM 11.7 °F - 4.1 °F 72% 30.19 in 10.0 mi Calm Calm - N/A Snow Light Snow
9:18 PM 11.7 °F - 4.1 °F 72% 30.18 in 10.0 mi Calm Calm - N/A Snow Light Snow
9:37 PM 11.8 °F - 4.5 °F 72% 30.18 in 10.0 mi Calm Calm - N/A Snow Light Snow
9:58 PM 12.0 °F - 5.5 °F 75% 30.17 in 10.0 mi Calm Calm - N/A Snow Light Snow
10:18 PM 12.2 °F - 6.3 °F 77% 30.16 in 10.0 mi Calm Calm - N/A   Overcast
10:38 PM 12.4 °F - 7.0 °F 79% 30.17 in 10.0 mi Calm Calm - N/A Snow Light Snow
10:58 PM 12.7 °F -0.4 °F 7.5 °F 80% 30.16 in 5.0 mi SSW 10.4 mph - N/A Snow Light Snow
11:17 PM 12.7 °F 2.4 °F 7.7 °F 80% 30.15 in 4.0 mi SSW 6.9 mph - N/A Snow Light Snow
11:38 PM 12.9 °F - 7.9 °F 80% 30.16 in 7.0 mi Calm Calm - N/A Snow Light Snow
11:58 PM 13.1 °F - 8.1 °F 80% 30.16 in 4.0 mi Calm Calm - N/A Snow Light Snow